Regional Weather Roundup
Issued by NWS

Home | Current Version | Previous Version | Graphics & Text | Print | Product List | Glossary On
Versions: 1 2 3 4 5 6 7 8 9 10 11 12 13 14 15 16 17 18 19 20 21 22 23 24 25 26 27 28 29 30 31 32 33 34 35 36 37 38 39 40 41 42 43 44 45 46 47 48 49 50
000
ASUS43 KFSD 210210
RWRSD

WEATHER ROUNDUP FOR SOUTH DAKOTA
NATIONAL WEATHER SERVICE SIOUX FALLS SD
900 PM CDT SAT SEP 20 2014

NOTE: "FAIR" INDICATES FEW OR NO CLOUDS BELOW 12,000 FEET WITH NO
SIGNIFICANT WEATHER AND/OR OBSTRUCTIONS TO VISIBILITY.


SDZ001>005-009-010-012>017-210300-
NORTHWEST AND NORTH CENTRAL SOUTH DAKOTA

CITY           SKY/WX    TMP DP  RH WIND       PRES   REMARKS
BUFFALO          N/A     63  35  35 NW17      30.14R
FAITH            N/A     56  37  49 NW9       30.16R
MOBRIDGE       PTCLDY    55  46  71 NW7       30.06R
$$

SDZ012>016-024>037-041>051-057-063-072>074-210300-
SOUTHWEST AND SOUTH CENTRAL SOUTH DAKOTA

CITY           SKY/WX    TMP DP  RH WIND       PRES   REMARKS
RAPID CTY ARPT CLEAR     56  41  57 N8        30.22R
PIERRE         CLEAR     56  37  49 NW10      30.08R
CUSTER         CLEAR     57  32  38 N6        30.32R
ELLSWORTH AFB  CLEAR     58  42  55 NW9       30.21R
PHILIP         CLEAR     59  40  49 NW8       30.15R
PINE RIDGE     CLEAR     57  42  57 E3        30.22R
WINNER         FAIR      64  38  38 NW9       30.11R
$$

SDZ004>011-016>023-039-040-210300-
NORTHEAST SOUTH DAKOTA

CITY           SKY/WX    TMP DP  RH WIND       PRES   REMARKS
ABERDEEN       CLEAR     62  44  51 W12       30.01R
WATERTOWN      CLEAR     60  46  59 W12       29.98R
SISSETON         N/A     61  47  59 NW13      29.93R
$$

SDZ017-020-022-023-036>040-048>070-210300-
SOUTHEAST SOUTH DAKOTA

CITY           SKY/WX    TMP DP  RH WIND       PRES   REMARKS
SIOUX FALLS    PTCLDY    65  44  46 N14       30.00R
HURON          MOCLDY    57  42  57 NW7       30.03R
CHAMBERLAIN    CLEAR     59  41  52 NW6       30.08R
MITCHELL       CLEAR     58  46  64 NW8       30.04R
YANKTON        CLEAR     66  46  48 NW12      30.03R
$$

ABBREVIATIONS USED IN REMARKS
   TC - TEMPERATURE IN CELSIUS
  WCI - WIND CHILL INDEX
   HX - HEAT INDEX
  VSB - VISIBILITY



USA.gov is the U.S. government's official web portal to all federal, state and local government web resources and services.